This is the latest recevied weather packets stored in our database for station/object AI5KP-13. If no packets are shown the sender has not sent any weather packets the latest 10 day(s).
| Time | Temp. | Humidity | Pressure | Rain* | Wind** | Luminosity | Snow |
|---|---|---|---|---|---|---|---|
| 1777588088 | 20° C | 41% | 1015.2 hPa | 0 mm | - | 175 W/m² | - |
| 1777587784 | 19.44° C | 42% | 1015.1 hPa | 0 mm | - | 256 W/m² | - |
| 1777587483 | 18.89° C | 42% | 1015 hPa | 0 mm | - | 188 W/m² | - |
| 1777587180 | 19.44° C | 41% | 1015.2 hPa | 0 mm | - | 225 W/m² | - |
| 1777586875 | 20° C | 39% | 1015.2 hPa | 0 mm | - | 344 W/m² | - |
| 1777586571 | 18.89° C | 40% | 1015.3 hPa | 0 mm | - | 369 W/m² | - |
| 1777586267 | 20° C | 42% | 1015.1 hPa | 0 mm | - | 221 W/m² | - |
| 1777585964 | 18.89° C | 42% | 1015.2 hPa | 0 mm | - | 197 W/m² | - |
| 1777585659 | 18.33° C | 39% | 1015.2 hPa | 0 mm | - | 201 W/m² | - |
| 1777585355 | 19.44° C | 40% | 1015.3 hPa | 0 mm | - | 198 W/m² | - |
| 1777585044 | 19.44° C | 40% | 1015.2 hPa | 0 mm | - | 331 W/m² | - |
| 1777584741 | 20.56° C | 39% | 1015.2 hPa | 0 mm | - | 468 W/m² | - |
| 1777584439 | 19.44° C | 40% | 1015.2 hPa | 0 mm | - | 410 W/m² | - |
| 1777584134 | 19.44° C | 43% | 1015.4 hPa | 0 mm | - | 466 W/m² | - |
| 1777583834 | 19.44° C | 42% | 1015.4 hPa | 0 mm | - | 261 W/m² | - |
| 1777583530 | 18.89° C | 45% | 1015.4 hPa | 0 mm | - | 278 W/m² | - |
| 1777583223 | 18.89° C | 41% | 1015.4 hPa | 0 mm | - | 289 W/m² | - |
| 1777582918 | 19.44° C | 44% | 1015.6 hPa | 0 mm | - | 425 W/m² | - |
| 1777582616 | 20° C | 41% | 1016 hPa | 0 mm | - | 340 W/m² | - |
| 1777582311 | 20.56° C | 39% | 1016 hPa | 0 mm | - | 456 W/m² | - |
| 1777582009 | 20° C | 41% | 1015.8 hPa | 0 mm | - | 450 W/m² | - |
| 1777581704 | 19.44° C | 40% | 1016 hPa | 0 mm | - | 467 W/m² | - |
| 1777581398 | 20° C | 40% | 1016.1 hPa | 0 mm | - | 378 W/m² | - |
| 1777581093 | 20° C | 40% | 1016.2 hPa | 0 mm | - | 495 W/m² | - |
| 1777580792 | 20° C | 41% | 1016.1 hPa | 0 mm | - | 528 W/m² | - |
* Rain latest hour (hover to see other rain measurements)
** Current wind speed in m/s (hover to see current wind gust speed)